FWI57Q LFPO-SOCA

Flight info

Callsign FWI57Q
Flight time 8h 32m
Altitude 27000
Route LGL UT176 ROLEN/N0481F370 DCT DIDAK DCT KURIS DCT TERPO DCT AKEMO DCT TIVLU/M085F360 UN536 BUNAV DCT PASAS DCT 41N020W/M085F380 33N030W/N0488F380 22N040W/N0484F400 16N045W DCT MOTSI DCT MEBLI DCT REKIM
Aircraft A359/H-SDE2E3GHIJ3J4J5LM1ORWXY/LB1D1

Departure

Time 2026-04-26 13:58
Airport Paris-Orly Airport (LFPO)

Arrival

Time 2026-04-26 22:31
Airport Cayenne – Félix Eboué Airport (SOCA)
Time Latitude Longitude Altitude Speed Heading
2026-04-26 13:26 48.72927 2.37603 301 ft 0 kts 310°
2026-04-26 13:46 48.72921 2.37612 303 ft 4 kts 310°
2026-04-26 13:46 48.72904 2.37644 301 ft 4 kts 310°
2026-04-26 13:46 48.72886 2.37675 304 ft 4 kts 310°
2026-04-26 13:46 48.72871 2.37703 304 ft 2 kts 310°
2026-04-26 13:47 48.72857 2.37732 302 ft 4 kts 293°
2026-04-26 13:47 48.72852 2.37769 302 ft 4 kts 253°
2026-04-26 13:47 48.72865 2.37796 304 ft 3 kts 198°
2026-04-26 13:47 48.72891 2.37808 304 ft 4 kts 198°
2026-04-26 13:48 48.72895 2.37811 305 ft 0 kts 198°
2026-04-26 13:52 48.72894 2.37810 305 ft 1 kts 198°
2026-04-26 13:52 48.72878 2.37802 304 ft 5 kts 198°
2026-04-26 13:52 48.72826 2.37776 305 ft 10 kts 198°
2026-04-26 13:52 48.72754 2.37741 306 ft 12 kts 198°
2026-04-26 13:53 48.72691 2.37665 305 ft 12 kts 244°
2026-04-26 13:53 48.72664 2.37540 306 ft 13 kts 254°
2026-04-26 13:53 48.72637 2.37400 304 ft 14 kts 254°
2026-04-26 13:53 48.72609 2.37248 303 ft 15 kts 254°
2026-04-26 13:54 48.72579 2.37086 305 ft 16 kts 254°
2026-04-26 13:54 48.72547 2.36915 307 ft 17 kts 254°
2026-04-26 13:54 48.72514 2.36734 306 ft 18 kts 255°
2026-04-26 13:55 48.72443 2.36347 306 ft 20 kts 254°
2026-04-26 13:55 48.72419 2.36213 306 ft 20 kts 254°
2026-04-26 13:55 48.72332 2.35742 305 ft 16 kts 254°
2026-04-26 13:56 48.72270 2.35614 308 ft 16 kts 204°
2026-04-26 13:56 48.72161 2.35627 303 ft 16 kts 167°
2026-04-26 13:56 48.72058 2.35702 308 ft 17 kts 137°
2026-04-26 13:56 48.71992 2.35843 308 ft 12 kts 122°
2026-04-26 13:57 48.71962 2.35946 304 ft 9 kts 91°
2026-04-26 13:57 48.71964 2.35966 303 ft 0 kts 80°
2026-04-26 13:57 48.71969 2.35998 303 ft 8 kts 77°
2026-04-26 13:57 48.71996 2.36156 305 ft 32 kts 75°
2026-04-26 13:58 48.72115 2.36799 307 ft 93 kts 74°
2026-04-26 13:58 48.72340 2.38021 310 ft 145 kts 75°
2026-04-26 13:58 48.72630 2.39643 639 ft 162 kts 73°
2026-04-26 13:58 48.72913 2.41300 1262 ft 162 kts 74°
2026-04-26 13:59 48.73190 2.42934 2003 ft 159 kts 75°
2026-04-26 13:59 48.73507 2.44592 2481 ft 172 kts 72°
2026-04-26 13:59 48.73857 2.46427 2764 ft 191 kts 75°
2026-04-26 14:00 48.74240 2.53440 3654 ft 248 kts 85°
2026-04-26 14:00 48.74217 2.56096 4164 ft 256 kts 98°
2026-04-26 14:00 48.73861 2.57807 4595 ft 259 kts 116°
2026-04-26 14:01 48.72170 2.60327 5434 ft 266 kts 154°
2026-04-26 14:01 48.70357 2.60859 6094 ft 271 kts 184°
2026-04-26 14:01 48.68575 2.59964 6752 ft 275 kts 213°
2026-04-26 14:01 48.67242 2.57892 7420 ft 277 kts 233°
2026-04-26 14:02 48.66225 2.55410 8099 ft 280 kts 246°
2026-04-26 14:02 48.65774 2.52555 8791 ft 281 kts 269°
2026-04-26 14:02 48.65838 2.49588 9500 ft 284 kts 275°
2026-04-26 14:02 48.66019 2.46612 10213 ft 286 kts 276°
2026-04-26 14:03 48.66232 2.43561 10676 ft 298 kts 277°
2026-04-26 14:03 48.66465 2.40361 10959 ft 315 kts 277°
2026-04-26 14:03 48.66716 2.36977 11231 ft 332 kts 277°
2026-04-26 14:03 48.66980 2.33416 11530 ft 348 kts 277°
2026-04-26 14:04 48.67256 2.29712 11902 ft 359 kts 277°
2026-04-26 14:04 48.67536 2.25934 12499 ft 364 kts 277°
2026-04-26 14:04 48.67815 2.22166 13133 ft 366 kts 276°
2026-04-26 14:04 48.68101 2.18304 13771 ft 370 kts 277°
2026-04-26 14:05 48.68290 2.15731 14203 ft 371 kts 276°
2026-04-26 14:05 48.68673 2.10496 14887 ft 377 kts 276°
2026-04-26 14:05 48.68959 2.06548 15559 ft 377 kts 276°
2026-04-26 14:05 48.69247 2.02582 16125 ft 381 kts 276°
2026-04-26 14:06 48.69535 1.98584 16724 ft 382 kts 276°
2026-04-26 14:06 48.69823 1.94575 17307 ft 385 kts 276°
2026-04-26 14:06 48.70112 1.90535 17882 ft 387 kts 276°
2026-04-26 14:06 48.70399 1.86493 18446 ft 389 kts 276°
2026-04-26 14:07 48.70690 1.82379 18970 ft 392 kts 276°
2026-04-26 14:07 48.70979 1.78262 19453 ft 395 kts 276°
2026-04-26 14:07 48.71270 1.74107 19947 ft 398 kts 276°
2026-04-26 14:07 48.71561 1.69928 20501 ft 400 kts 276°
2026-04-26 14:08 48.71851 1.65732 21043 ft 402 kts 276°
2026-04-26 14:08 48.72137 1.61568 21543 ft 405 kts 276°
2026-04-26 14:08 48.72430 1.57297 22046 ft 408 kts 276°
2026-04-26 14:08 48.72721 1.53005 22552 ft 411 kts 276°
2026-04-26 14:09 48.73014 1.48676 23065 ft 414 kts 275°
2026-04-26 14:09 48.73306 1.44318 23577 ft 417 kts 276°
2026-04-26 14:09 48.73599 1.39939 24020 ft 420 kts 276°
2026-04-26 14:09 48.73895 1.35505 24440 ft 423 kts 276°
2026-04-26 14:10 48.74189 1.31063 24877 ft 425 kts 276°
2026-04-26 14:10 48.74480 1.26643 25282 ft 427 kts 276°
2026-04-26 14:10 48.74774 1.22151 25729 ft 429 kts 276°
2026-04-26 14:10 48.75066 1.17640 26200 ft 431 kts 276°
2026-04-26 14:11 48.75651 1.08551 27080 ft 435 kts 276°
2026-04-26 14:11 48.75942 1.03986 27512 ft 436 kts 276°
2026-04-26 14:11 48.76232 0.99399 27960 ft 438 kts 276°
2026-04-26 14:12 48.76522 0.94795 28363 ft 440 kts 276°
2026-04-26 14:12 48.76812 0.90167 28764 ft 442 kts 276°
2026-04-26 14:12 48.77101 0.85519 29164 ft 443 kts 275°
2026-04-26 14:12 48.77389 0.80856 29564 ft 445 kts 275°
2026-04-26 14:13 48.77958 0.71536 30302 ft 448 kts 275°
2026-04-26 14:13 48.78240 0.66824 30591 ft 450 kts 275°
2026-04-26 14:13 48.78342 0.62074 30857 ft 452 kts 268°
2026-04-26 14:14 48.78004 0.57323 31123 ft 455 kts 260°
2026-04-26 14:14 48.77178 0.52682 31369 ft 458 kts 251°
2026-04-26 14:14 48.75864 0.48268 31620 ft 462 kts 243°
2026-04-26 14:14 48.74146 0.44140 31855 ft 466 kts 237°
2026-04-26 14:15 48.72169 0.40243 32196 ft 465 kts 232°
2026-04-26 14:15 48.70087 0.36539 32681 ft 462 kts 231°
2026-04-26 14:15 48.67961 0.32902 33099 ft 459 kts 231°
2026-04-26 14:15 48.65840 0.29297 33491 ft 458 kts 231°
2026-04-26 14:16 48.63734 0.25691 33797 ft 456 kts 231°
2026-04-26 14:16 48.61648 0.22079 34054 ft 456 kts 232°
2026-04-26 14:16 48.59572 0.18459 34334 ft 456 kts 231°
2026-04-26 14:16 48.57357 0.15031 34576 ft 458 kts 225°
2026-04-26 14:17 48.54981 0.11811 34753 ft 459 kts 224°
2026-04-26 14:17 48.52566 0.08654 34944 ft 459 kts 223°
2026-04-26 14:17 48.50126 0.05531 35127 ft 460 kts 223°
2026-04-26 14:17 48.47683 0.02435 35339 ft 460 kts 223°
2026-04-26 14:18 48.45224 -0.00671 35534 ft 460 kts 223°
2026-04-26 14:18 48.41143 -0.05829 35751 ft 462 kts 222°
2026-04-26 14:18 48.38677 -0.08949 35946 ft 462 kts 222°
2026-04-26 14:19 48.36217 -0.12059 36127 ft 461 kts 223°
2026-04-26 14:19 48.33761 -0.15164 36316 ft 461 kts 223°
2026-04-26 14:19 48.31303 -0.18270 36478 ft 461 kts 223°
2026-04-26 14:19 48.28847 -0.21371 36657 ft 461 kts 222°
2026-04-26 14:20 48.26479 -0.24615 36794 ft 460 kts 228°
2026-04-26 14:20 48.24381 -0.28214 36959 ft 458 kts 233°
2026-04-26 14:20 48.22394 -0.31937 37100 ft 457 kts 234°
2026-04-26 14:21 48.18478 -0.39576 37130 ft 463 kts 234°
2026-04-26 14:21 48.14573 -0.47275 37204 ft 464 kts 234°
2026-04-26 14:22 48.10679 -0.54895 37207 ft 464 kts 234°
2026-04-26 14:22 48.06743 -0.62546 37213 ft 464 kts 234°
2026-04-26 14:23 48.02802 -0.70172 37209 ft 464 kts 234°
2026-04-26 14:23 47.98853 -0.77795 37207 ft 464 kts 234°
2026-04-26 14:24 47.94896 -0.85416 37208 ft 464 kts 234°
2026-04-26 14:24 47.90942 -0.93007 37204 ft 462 kts 234°
2026-04-26 14:25 47.86994 -1.00565 37187 ft 462 kts 234°
2026-04-26 14:25 47.83040 -1.08114 37187 ft 462 kts 234°
2026-04-26 14:26 47.79084 -1.15647 37175 ft 462 kts 234°
2026-04-26 14:26 47.75117 -1.23179 37181 ft 463 kts 233°
2026-04-26 14:27 47.71171 -1.30653 37181 ft 462 kts 233°
2026-04-26 14:27 47.67201 -1.38149 37179 ft 462 kts 233°
2026-04-26 14:28 47.63221 -1.45642 37178 ft 461 kts 233°
2026-04-26 14:28 47.59232 -1.53130 37179 ft 462 kts 233°
2026-04-26 14:29 47.55005 -1.60303 37179 ft 463 kts 229°
2026-04-26 14:29 47.50622 -1.67302 37174 ft 463 kts 229°
2026-04-26 14:30 47.46301 -1.74261 37176 ft 462 kts 229°
2026-04-26 14:30 47.41981 -1.81301 37177 ft 462 kts 230°
2026-04-26 14:31 47.37709 -1.88391 37198 ft 461 kts 233°
2026-04-26 14:31 47.34411 -1.96440 37207 ft 458 kts 248°
2026-04-26 14:32 47.32419 -2.05348 37210 ft 458 kts 254°
2026-04-26 14:32 47.30715 -2.14338 37211 ft 458 kts 255°
2026-04-26 14:33 47.29018 -2.23393 37208 ft 458 kts 255°
2026-04-26 14:33 47.27285 -2.32438 37208 ft 459 kts 254°
2026-04-26 14:34 47.25528 -2.41465 37205 ft 459 kts 254°
2026-04-26 14:34 47.23760 -2.50485 37208 ft 459 kts 254°
2026-04-26 14:35 47.21986 -2.59498 37208 ft 459 kts 254°
2026-04-26 14:35 47.20204 -2.68514 37200 ft 459 kts 254°
2026-04-26 14:36 47.18416 -2.77525 37199 ft 459 kts 253°
2026-04-26 14:36 47.16621 -2.86525 37201 ft 459 kts 253°
2026-04-26 14:37 47.14819 -2.95521 37200 ft 458 kts 253°
2026-04-26 14:37 47.13384 -3.05168 37205 ft 458 kts 260°
2026-04-26 14:38 47.12370 -3.14410 37203 ft 459 kts 261°
2026-04-26 14:38 47.11400 -3.23675 37205 ft 459 kts 261°
2026-04-26 14:39 47.10426 -3.32875 37204 ft 458 kts 260°
2026-04-26 14:39 47.09439 -3.42045 37200 ft 457 kts 260°
2026-04-26 14:40 47.08434 -3.51262 37203 ft 457 kts 260°
2026-04-26 14:40 47.07422 -3.60475 37202 ft 457 kts 260°
2026-04-26 14:41 47.06402 -3.69686 37203 ft 457 kts 260°
2026-04-26 14:41 47.05377 -3.78876 37203 ft 456 kts 260°
2026-04-26 14:42 47.04349 -3.88033 37204 ft 455 kts 259°
2026-04-26 14:42 47.03312 -3.97188 37203 ft 455 kts 259°
2026-04-26 14:43 47.02268 -4.06352 37205 ft 455 kts 259°
2026-04-26 14:43 47.01218 -4.15491 37206 ft 455 kts 259°
2026-04-26 14:44 47.00162 -4.24617 37206 ft 454 kts 259°
2026-04-26 14:44 46.99099 -4.33734 37205 ft 454 kts 259°
2026-04-26 14:45 46.98037 -4.42780 37209 ft 454 kts 259°
2026-04-26 14:45 46.96961 -4.51884 37209 ft 454 kts 259°
2026-04-26 14:46 46.95877 -4.60989 37209 ft 454 kts 259°
2026-04-26 14:46 46.94785 -4.70094 37208 ft 453 kts 259°
2026-04-26 14:47 46.93687 -4.79187 37210 ft 453 kts 259°
2026-04-26 14:47 46.92584 -4.88265 37212 ft 453 kts 259°
2026-04-26 14:48 46.91474 -4.97330 37217 ft 452 kts 258°
2026-04-26 14:48 46.90360 -5.06372 37214 ft 451 kts 258°
2026-04-26 14:49 46.89245 -5.15353 37213 ft 451 kts 258°
2026-04-26 14:49 46.88117 -5.24380 37219 ft 451 kts 258°
2026-04-26 14:50 46.86981 -5.33411 37222 ft 451 kts 258°
2026-04-26 14:50 46.86036 -5.40883 37221 ft 449 kts 258°
2026-04-26 14:51 46.84893 -5.49857 37221 ft 449 kts 258°
2026-04-26 14:51 46.83744 -5.58824 37214 ft 449 kts 257°
2026-04-26 14:52 46.82588 -5.67781 37215 ft 449 kts 258°
2026-04-26 14:52 46.81426 -5.76736 37232 ft 448 kts 257°
2026-04-26 14:53 46.80268 -5.85599 37232 ft 447 kts 257°
2026-04-26 14:53 46.79097 -5.94508 37218 ft 447 kts 257°
2026-04-26 14:54 46.77918 -6.03415 37225 ft 447 kts 257°
2026-04-26 14:54 46.76733 -6.12317 37245 ft 447 kts 257°
2026-04-26 14:55 46.75542 -6.21204 37233 ft 447 kts 257°
2026-04-26 14:55 46.74344 -6.30091 37232 ft 446 kts 257°
2026-04-26 14:56 46.73140 -6.38971 37237 ft 446 kts 256°
2026-04-26 14:56 46.71928 -6.47847 37234 ft 446 kts 256°
2026-04-26 14:57 46.70718 -6.56662 37241 ft 446 kts 256°
2026-04-26 14:57 46.69494 -6.65524 37239 ft 446 kts 256°
2026-04-26 14:58 46.68260 -6.74398 37241 ft 446 kts 256°
2026-04-26 14:58 46.67019 -6.83274 37242 ft 446 kts 256°
2026-04-26 14:59 46.65774 -6.92128 37254 ft 447 kts 256°
2026-04-26 14:59 46.64520 -7.00986 37246 ft 447 kts 256°
2026-04-26 15:00 46.63260 -7.09843 37248 ft 447 kts 256°
2026-04-26 15:00 46.62001 -7.18634 37253 ft 446 kts 256°
2026-04-26 15:01 46.60729 -7.27469 37254 ft 446 kts 256°
2026-04-26 15:01 46.59447 -7.36319 37249 ft 448 kts 256°
2026-04-26 15:02 46.58154 -7.45195 37251 ft 449 kts 256°
2026-04-26 15:02 46.56852 -7.54079 37252 ft 449 kts 256°
2026-04-26 15:03 46.55544 -7.62961 37252 ft 449 kts 255°
2026-04-26 15:03 46.54227 -7.71842 37255 ft 449 kts 256°
2026-04-26 15:04 46.52901 -7.80735 37256 ft 451 kts 256°
2026-04-26 15:04 46.52237 -7.85174 37419 ft 449 kts 256°
2026-04-26 15:04 46.51575 -7.89584 37676 ft 446 kts 256°
2026-04-26 15:04 46.50922 -7.93925 37853 ft 446 kts 256°
2026-04-26 15:05 46.50327 -7.98400 37976 ft 447 kts 260°
2026-04-26 15:05 46.50007 -8.07367 38220 ft 449 kts 267°
2026-04-26 15:06 46.50001 -8.16487 38261 ft 454 kts 268°
2026-04-26 15:06 46.50041 -8.25683 38260 ft 456 kts 268°
2026-04-26 15:07 46.50068 -8.39489 38260 ft 456 kts 268°
2026-04-26 15:07 46.50063 -8.48640 38262 ft 456 kts 268°
2026-04-26 15:08 46.50050 -8.57827 38262 ft 456 kts 268°
2026-04-26 15:08 46.50028 -8.67032 38262 ft 456 kts 268°
2026-04-26 15:09 46.49226 -8.76097 38265 ft 452 kts 253°
2026-04-26 15:09 46.46948 -8.84560 38263 ft 451 kts 245°
2026-04-26 15:10 46.44731 -8.91398 38266 ft 452 kts 244°
2026-04-26 15:10 46.41521 -9.01011 38263 ft 453 kts 244°
2026-04-26 15:11 46.38789 -9.09236 38268 ft 453 kts 244°
2026-04-26 15:11 46.36068 -9.17465 38269 ft 453 kts 244°
2026-04-26 15:12 46.33343 -9.25696 38275 ft 454 kts 244°
2026-04-26 15:12 46.30601 -9.33952 38275 ft 457 kts 244°
2026-04-26 15:13 46.27830 -9.42267 38254 ft 459 kts 244°
2026-04-26 15:13 46.25073 -9.50513 38275 ft 459 kts 244°
2026-04-26 15:14 46.22293 -9.58799 38276 ft 458 kts 244°
2026-04-26 15:14 46.19502 -9.67091 38272 ft 460 kts 244°
2026-04-26 15:15 46.16692 -9.75415 38268 ft 462 kts 244°
2026-04-26 15:15 46.13873 -9.83741 38270 ft 461 kts 244°
2026-04-26 15:16 46.11056 -9.92032 38271 ft 459 kts 244°
2026-04-26 15:16 46.08242 -10.00286 38279 ft 459 kts 245°
2026-04-26 15:17 46.05896 -10.07149 38275 ft 460 kts 244°
2026-04-26 15:17 46.02606 -10.16746 38276 ft 460 kts 244°
2026-04-26 15:18 45.99771 -10.24988 38278 ft 460 kts 244°
2026-04-26 15:18 45.96926 -10.33232 38259 ft 460 kts 244°
2026-04-26 15:19 45.94073 -10.41473 38266 ft 461 kts 244°
2026-04-26 15:19 45.91203 -10.49738 38281 ft 462 kts 244°
2026-04-26 15:20 45.88328 -10.57992 38278 ft 462 kts 244°
2026-04-26 15:20 45.85449 -10.66233 38273 ft 460 kts 244°
2026-04-26 15:21 45.82576 -10.74431 38275 ft 460 kts 244°
2026-04-26 15:21 45.79703 -10.82602 38270 ft 463 kts 244°
2026-04-26 15:22 45.76802 -10.90830 38277 ft 463 kts 244°
2026-04-26 15:22 45.73893 -10.99052 38277 ft 463 kts 244°
2026-04-26 15:23 45.70979 -11.07266 38273 ft 463 kts 244°
2026-04-26 15:23 45.68047 -11.15507 38274 ft 466 kts 244°
2026-04-26 15:24 45.65095 -11.23776 38273 ft 467 kts 244°
2026-04-26 15:24 45.62134 -11.32044 38276 ft 467 kts 244°
2026-04-26 15:25 45.59670 -11.38903 38256 ft 467 kts 244°
2026-04-26 15:25 45.56222 -11.48477 38274 ft 465 kts 244°
2026-04-26 15:26 45.53256 -11.56686 38273 ft 465 kts 244°
2026-04-26 15:26 45.50288 -11.64873 38276 ft 465 kts 244°
2026-04-26 15:27 45.47310 -11.73063 38273 ft 465 kts 244°
2026-04-26 15:27 45.44322 -11.81258 38274 ft 467 kts 244°
2026-04-26 15:28 45.41323 -11.89458 38276 ft 467 kts 244°
2026-04-26 15:28 45.38327 -11.97625 38276 ft 468 kts 244°
2026-04-26 15:29 45.35310 -12.05824 38273 ft 468 kts 244°
2026-04-26 15:30 45.29267 -12.22170 38273 ft 465 kts 244°
2026-04-26 15:30 45.26254 -12.30283 38273 ft 464 kts 244°
2026-04-26 15:31 45.21724 -12.42438 38273 ft 464 kts 244°
2026-04-26 15:32 45.18204 -12.51847 38275 ft 466 kts 244°
2026-04-26 15:32 45.14134 -12.62686 38273 ft 466 kts 244°
2026-04-26 15:33 45.11101 -12.70734 38273 ft 466 kts 244°
2026-04-26 15:33 45.08024 -12.78875 38273 ft 466 kts 244°
2026-04-26 15:34 45.04957 -12.86969 38273 ft 467 kts 244°
2026-04-26 15:34 45.01903 -12.95003 38273 ft 465 kts 244°
2026-04-26 15:35 44.98545 -13.02814 38274 ft 466 kts 238°
2026-04-26 15:35 44.94815 -13.10305 38270 ft 466 kts 237°
2026-04-26 15:36 44.91026 -13.17730 38270 ft 467 kts 237°
2026-04-26 15:36 44.87224 -13.25156 38274 ft 467 kts 237°
2026-04-26 15:37 44.83425 -13.32582 38274 ft 467 kts 237°
2026-04-26 15:37 44.79623 -13.40004 38266 ft 467 kts 237°
2026-04-26 15:38 44.75820 -13.47413 38273 ft 466 kts 236°
2026-04-26 15:38 44.72039 -13.54758 38273 ft 466 kts 236°
2026-04-26 15:39 44.68236 -13.62126 38274 ft 466 kts 236°
2026-04-26 15:39 44.65685 -13.67060 38273 ft 466 kts 236°
2026-04-26 15:40 44.61250 -13.75615 38285 ft 466 kts 236°
2026-04-26 15:40 44.57419 -13.82984 38266 ft 467 kts 236°
2026-04-26 15:41 44.53583 -13.90344 38265 ft 467 kts 236°
2026-04-26 15:41 44.49751 -13.97678 38275 ft 466 kts 236°
2026-04-26 15:42 44.45920 -14.04991 38265 ft 466 kts 236°
2026-04-26 15:42 44.42102 -14.12261 38267 ft 466 kts 236°
2026-04-26 15:43 44.38255 -14.19568 38269 ft 467 kts 236°
2026-04-26 15:44 44.32468 -14.30526 38272 ft 467 kts 236°
2026-04-26 15:44 44.26667 -14.41468 38263 ft 468 kts 236°
2026-04-26 15:45 44.20853 -14.52393 38268 ft 467 kts 236°
2026-04-26 15:46 44.15036 -14.63283 38255 ft 467 kts 235°
2026-04-26 15:46 44.11801 -14.69322 38265 ft 468 kts 235°
2026-04-26 15:47 44.05310 -14.81401 38259 ft 469 kts 235°
2026-04-26 15:48 44.01397 -14.88658 38258 ft 469 kts 235°
2026-04-26 15:48 43.97485 -14.95895 38258 ft 468 kts 235°
2026-04-26 15:49 43.93563 -15.03134 38260 ft 470 kts 235°
2026-04-26 15:49 43.89625 -15.10385 38260 ft 470 kts 235°
2026-04-26 15:50 43.85689 -15.17612 38263 ft 470 kts 235°
2026-04-26 15:50 43.81743 -15.24840 38260 ft 470 kts 235°
2026-04-26 15:51 43.77794 -15.32055 38259 ft 470 kts 235°
2026-04-26 15:51 43.73841 -15.39261 38257 ft 470 kts 234°
2026-04-26 15:52 43.69883 -15.46458 38257 ft 470 kts 234°
2026-04-26 15:52 43.65944 -15.53603 38257 ft 470 kts 234°
2026-04-26 15:53 43.61978 -15.60778 38257 ft 470 kts 234°
2026-04-26 15:53 43.58008 -15.67943 38257 ft 471 kts 234°
2026-04-26 15:54 43.54023 -15.75119 38257 ft 471 kts 234°
2026-04-26 15:54 43.50028 -15.82294 38255 ft 472 kts 234°
2026-04-26 15:55 43.46032 -15.89455 38257 ft 471 kts 234°
2026-04-26 15:55 43.42023 -15.96619 38257 ft 471 kts 234°
2026-04-26 15:56 43.38022 -16.03753 38257 ft 472 kts 234°
2026-04-26 15:56 43.34027 -16.10860 38254 ft 472 kts 234°
2026-04-26 15:57 43.30007 -16.17994 38257 ft 472 kts 234°
2026-04-26 15:57 43.25982 -16.25118 38257 ft 472 kts 234°
2026-04-26 15:58 43.21950 -16.32237 38257 ft 472 kts 234°
2026-04-26 15:58 43.17921 -16.39334 38256 ft 472 kts 233°
2026-04-26 15:59 43.13877 -16.46441 38257 ft 473 kts 233°
2026-04-26 15:59 43.09830 -16.53536 38256 ft 473 kts 233°
2026-04-26 16:00 43.05779 -16.60621 38261 ft 473 kts 233°
2026-04-26 16:00 43.01723 -16.67696 38263 ft 473 kts 233°
2026-04-26 16:01 42.97661 -16.74767 38256 ft 473 kts 233°
2026-04-26 16:01 42.93591 -16.81834 38256 ft 473 kts 233°
2026-04-26 16:02 42.89542 -16.88847 38260 ft 473 kts 233°
2026-04-26 16:02 42.85465 -16.95893 38263 ft 473 kts 233°
2026-04-26 16:03 42.81382 -17.02932 38260 ft 473 kts 233°
2026-04-26 16:03 42.77293 -17.09966 38260 ft 474 kts 233°
2026-04-26 16:04 42.73198 -17.16992 38262 ft 474 kts 233°
2026-04-26 16:04 42.69096 -17.24014 38263 ft 474 kts 233°
2026-04-26 16:05 42.64988 -17.31029 38260 ft 473 kts 233°
2026-04-26 16:05 42.60886 -17.38017 38260 ft 473 kts 232°
2026-04-26 16:06 42.56770 -17.45013 38263 ft 474 kts 232°
2026-04-26 16:06 42.52673 -17.51961 38264 ft 475 kts 232°
2026-04-26 16:07 42.48544 -17.58947 38262 ft 475 kts 232°
2026-04-26 16:07 42.44413 -17.65919 38256 ft 474 kts 232°
2026-04-26 16:08 42.40283 -17.72873 38266 ft 474 kts 232°
2026-04-26 16:08 42.36146 -17.79823 38264 ft 474 kts 232°
2026-04-26 16:09 42.32001 -17.86771 38261 ft 475 kts 232°
2026-04-26 16:09 42.27874 -17.93671 38263 ft 475 kts 232°
2026-04-26 16:10 42.23722 -18.00597 38264 ft 475 kts 232°
2026-04-26 16:10 42.19562 -18.07521 38266 ft 475 kts 232°
2026-04-26 16:11 42.15399 -18.14435 38262 ft 475 kts 232°
2026-04-26 16:11 42.11231 -18.21341 38262 ft 475 kts 232°
2026-04-26 16:12 42.07059 -18.28236 38264 ft 475 kts 232°
2026-04-26 16:12 42.00793 -18.38564 38262 ft 475 kts 232°
2026-04-26 16:13 41.96607 -18.45443 38257 ft 475 kts 232°
2026-04-26 16:13 41.92446 -18.52267 38264 ft 475 kts 231°
2026-04-26 16:14 41.88251 -18.59128 38264 ft 475 kts 231°
2026-04-26 16:15 41.81952 -18.69404 38262 ft 475 kts 231°
2026-04-26 16:15 41.77754 -18.76233 38263 ft 475 kts 231°
2026-04-26 16:16 41.71444 -18.86469 38266 ft 475 kts 231°
2026-04-26 16:16 41.67232 -18.93281 38265 ft 475 kts 231°
2026-04-26 16:17 41.63015 -19.00086 38260 ft 475 kts 231°
2026-04-26 16:17 41.58802 -19.06870 38278 ft 474 kts 231°
2026-04-26 16:18 41.52482 -19.17018 38277 ft 474 kts 231°
2026-04-26 16:19 41.46135 -19.27174 38276 ft 475 kts 231°
2026-04-26 16:20 41.39796 -19.37285 38276 ft 475 kts 231°
2026-04-26 16:20 41.33429 -19.47405 38269 ft 475 kts 231°
2026-04-26 16:21 41.29177 -19.54145 38247 ft 475 kts 231°
2026-04-26 16:21 41.24925 -19.60870 38269 ft 475 kts 231°
2026-04-26 16:22 41.20672 -19.67582 38264 ft 475 kts 231°
2026-04-26 16:22 41.16432 -19.74258 38271 ft 475 kts 231°
2026-04-26 16:23 41.12170 -19.80954 38267 ft 475 kts 231°
2026-04-26 16:23 41.07898 -19.87650 38267 ft 476 kts 231°
2026-04-26 16:24 41.03615 -19.94350 38267 ft 476 kts 230°
2026-04-26 16:24 40.99330 -20.01035 38245 ft 476 kts 230°
2026-04-26 16:25 40.94722 -20.07357 38266 ft 477 kts 225°
2026-04-26 16:25 40.89926 -20.13419 38245 ft 477 kts 225°
2026-04-26 16:26 40.85960 -20.18482 38256 ft 478 kts 225°
2026-04-26 16:26 40.80418 -20.25683 38260 ft 478 kts 225°
2026-04-26 16:27 40.76489 -20.30818 38255 ft 478 kts 225°
2026-04-26 16:27 40.71769 -20.36978 38261 ft 477 kts 225°
2026-04-26 16:28 40.67044 -20.43127 38260 ft 477 kts 225°
2026-04-26 16:28 40.62316 -20.49264 38256 ft 477 kts 225°
2026-04-26 16:29 40.57572 -20.55408 38256 ft 479 kts 225°
2026-04-26 16:29 40.52822 -20.61546 38258 ft 479 kts 225°
2026-04-26 16:30 40.48101 -20.67635 38260 ft 478 kts 225°
2026-04-26 16:30 40.43348 -20.73752 38261 ft 478 kts 225°
2026-04-26 16:31 40.38595 -20.79855 38258 ft 478 kts 225°
2026-04-26 16:31 40.33836 -20.85955 38255 ft 479 kts 225°
2026-04-26 16:32 40.29063 -20.92059 38251 ft 480 kts 225°
2026-04-26 16:32 40.24279 -20.98164 38253 ft 480 kts 225°
2026-04-26 16:33 40.19507 -21.04242 38255 ft 479 kts 225°
2026-04-26 16:33 40.14728 -21.10316 38254 ft 479 kts 225°
2026-04-26 16:34 40.09951 -21.16376 38254 ft 479 kts 225°
2026-04-26 16:34 40.05188 -21.22404 38254 ft 480 kts 225°
2026-04-26 16:35 40.00379 -21.28480 38253 ft 481 kts 225°
2026-04-26 16:35 39.95564 -21.34549 38254 ft 481 kts 225°
2026-04-26 16:36 39.90760 -21.40591 38252 ft 480 kts 225°
2026-04-26 16:36 39.85949 -21.46630 38251 ft 480 kts 225°
2026-04-26 16:37 39.81137 -21.52659 38255 ft 481 kts 225°
2026-04-26 16:37 39.76308 -21.58696 38251 ft 482 kts 225°
2026-04-26 16:38 39.71471 -21.64732 38252 ft 482 kts 225°
2026-04-26 16:38 39.66666 -21.70714 38251 ft 482 kts 225°
2026-04-26 16:39 39.61828 -21.76726 38252 ft 481 kts 225°
2026-04-26 16:39 39.56983 -21.82733 38247 ft 482 kts 225°
2026-04-26 16:40 39.52110 -21.88765 38251 ft 486 kts 225°
2026-04-26 16:40 39.47212 -21.94813 38249 ft 486 kts 225°
2026-04-26 16:41 39.42317 -22.00846 38252 ft 486 kts 225°
2026-04-26 16:41 39.37411 -22.06880 38251 ft 486 kts 225°
2026-04-26 16:42 39.32507 -22.12900 38249 ft 486 kts 225°
2026-04-26 16:42 39.27633 -22.18870 38249 ft 486 kts 225°
2026-04-26 16:43 39.22720 -22.24876 38250 ft 486 kts 225°
2026-04-26 16:43 39.17808 -22.30869 38248 ft 486 kts 225°
2026-04-26 16:44 39.12890 -22.36856 38247 ft 486 kts 225°
2026-04-26 16:44 39.07966 -22.42840 38248 ft 487 kts 225°
2026-04-26 16:45 39.03040 -22.48813 38251 ft 487 kts 225°
2026-04-26 16:45 38.98096 -22.54797 38242 ft 488 kts 225°
2026-04-26 16:46 38.93142 -22.60780 38249 ft 489 kts 225°
2026-04-26 16:46 38.88213 -22.66721 38246 ft 489 kts 225°
2026-04-26 16:47 38.83251 -22.72689 38241 ft 489 kts 225°
2026-04-26 16:47 38.78280 -22.78657 38234 ft 489 kts 225°
2026-04-26 16:48 38.73291 -22.84635 38247 ft 491 kts 225°
2026-04-26 16:48 38.68292 -22.90612 38247 ft 492 kts 225°
2026-04-26 16:49 38.63286 -22.96585 38249 ft 492 kts 225°
2026-04-26 16:49 38.58272 -23.02555 38242 ft 492 kts 225°
2026-04-26 16:50 38.53253 -23.08521 38248 ft 493 kts 225°
2026-04-26 16:50 38.48231 -23.14478 38248 ft 493 kts 225°
2026-04-26 16:51 38.43223 -23.20407 38241 ft 494 kts 225°
2026-04-26 16:51 38.38182 -23.26362 38242 ft 494 kts 225°
2026-04-26 16:52 38.33959 -23.31342 38242 ft 494 kts 225°
2026-04-26 16:52 38.28092 -23.38247 38242 ft 494 kts 225°
2026-04-26 16:53 38.23033 -23.44188 38228 ft 494 kts 225°
2026-04-26 16:53 38.17973 -23.50119 38232 ft 495 kts 225°
2026-04-26 16:54 38.12905 -23.56047 38235 ft 495 kts 225°
2026-04-26 16:54 38.07836 -23.61964 38240 ft 495 kts 225°
2026-04-26 16:55 38.02769 -23.67868 38230 ft 495 kts 225°
2026-04-26 16:55 37.97720 -23.73740 38250 ft 495 kts 225°
2026-04-26 16:56 37.90091 -23.82590 38238 ft 496 kts 226°
2026-04-26 16:57 37.85004 -23.88477 38238 ft 496 kts 226°
2026-04-26 16:57 37.77361 -23.97299 38238 ft 496 kts 225°
2026-04-26 16:58 37.73126 -24.02177 38235 ft 496 kts 225°
2026-04-26 16:59 37.64630 -24.11939 38235 ft 496 kts 226°
2026-04-26 17:00 37.54416 -24.23632 38233 ft 496 kts 226°
2026-04-26 17:00 37.46751 -24.32378 38233 ft 496 kts 226°
2026-04-26 17:01 37.41635 -24.38202 38226 ft 496 kts 226°
2026-04-26 17:01 37.36518 -24.44014 38232 ft 495 kts 226°
2026-04-26 17:02 37.31407 -24.49809 38227 ft 494 kts 226°
2026-04-26 17:02 37.26333 -24.55553 38224 ft 494 kts 226°
2026-04-26 17:03 37.21224 -24.61324 38224 ft 494 kts 226°
2026-04-26 17:03 37.16108 -24.67092 38222 ft 494 kts 226°
2026-04-26 17:04 37.10993 -24.72847 38217 ft 494 kts 226°
2026-04-26 17:04 37.05882 -24.78588 38221 ft 493 kts 226°
2026-04-26 17:05 37.00765 -24.84325 38216 ft 493 kts 226°
2026-04-26 17:05 36.95651 -24.90047 38215 ft 493 kts 226°
2026-04-26 17:06 36.90535 -24.95761 38214 ft 493 kts 226°
2026-04-26 17:06 36.85444 -25.01437 38214 ft 493 kts 226°
2026-04-26 17:07 36.80327 -25.07130 38211 ft 492 kts 227°
2026-04-26 17:07 36.75219 -25.12801 38214 ft 491 kts 227°
2026-04-26 17:08 36.70112 -25.18463 38217 ft 491 kts 227°
2026-04-26 17:08 36.65009 -25.24111 38218 ft 491 kts 226°
2026-04-26 17:09 36.60756 -25.28809 38216 ft 491 kts 226°
2026-04-26 17:09 36.54777 -25.35401 38214 ft 491 kts 226°
2026-04-26 17:10 36.49693 -25.40995 38214 ft 490 kts 227°
2026-04-26 17:10 36.44582 -25.46608 38215 ft 490 kts 227°
2026-04-26 17:11 36.39463 -25.52222 38210 ft 490 kts 227°
2026-04-26 17:11 36.34349 -25.57818 38212 ft 490 kts 227°
2026-04-26 17:12 36.26682 -25.66189 38204 ft 490 kts 227°
2026-04-26 17:13 36.19026 -25.74524 38207 ft 487 kts 227°
2026-04-26 17:14 36.11391 -25.82818 38202 ft 487 kts 227°
2026-04-26 17:14 36.03775 -25.91067 38200 ft 487 kts 227°
2026-04-26 17:15 35.96134 -25.99319 38199 ft 484 kts 227°
2026-04-26 17:16 35.91073 -26.04770 38209 ft 482 kts 227°
2026-04-26 17:16 35.86025 -26.10203 38187 ft 481 kts 227°
2026-04-26 17:17 35.81007 -26.15595 38183 ft 481 kts 227°
2026-04-26 17:17 35.75957 -26.21010 38204 ft 481 kts 227°
2026-04-26 17:18 35.71724 -26.25540 38181 ft 481 kts 227°
2026-04-26 17:18 35.66681 -26.30927 38187 ft 478 kts 226°
2026-04-26 17:19 35.59184 -26.38922 38187 ft 477 kts 226°
2026-04-26 17:19 35.54169 -26.44260 38188 ft 477 kts 226°
2026-04-26 17:20 35.49962 -26.48730 38187 ft 477 kts 226°
2026-04-26 17:20 35.44127 -26.54919 38183 ft 477 kts 226°
2026-04-26 17:21 35.39097 -26.60242 38184 ft 476 kts 226°
2026-04-26 17:21 35.34093 -26.65529 38185 ft 474 kts 226°
2026-04-26 17:22 35.29097 -26.70801 38185 ft 474 kts 226°
2026-04-26 17:22 35.24094 -26.76071 38178 ft 474 kts 226°
2026-04-26 17:23 35.19094 -26.81329 38178 ft 474 kts 226°
2026-04-26 17:23 35.14112 -26.86559 38179 ft 474 kts 226°
2026-04-26 17:24 35.09103 -26.91807 38175 ft 473 kts 226°
2026-04-26 17:24 35.04100 -26.97041 38176 ft 473 kts 226°
2026-04-26 17:25 34.99102 -27.02261 38173 ft 473 kts 226°
2026-04-26 17:25 34.94089 -27.07490 38177 ft 474 kts 226°
2026-04-26 17:26 34.89104 -27.12679 38173 ft 474 kts 226°
2026-04-26 17:26 34.84084 -27.17895 38157 ft 474 kts 226°
2026-04-26 17:27 34.79067 -27.23099 38175 ft 474 kts 226°
2026-04-26 17:27 34.74051 -27.28295 38169 ft 474 kts 226°
2026-04-26 17:28 34.69025 -27.33493 38166 ft 475 kts 226°
2026-04-26 17:28 34.63992 -27.38690 38164 ft 475 kts 226°
2026-04-26 17:29 34.59794 -27.43016 38162 ft 475 kts 226°
2026-04-26 17:29 34.53891 -27.49091 38170 ft 476 kts 226°
2026-04-26 17:30 34.48836 -27.54284 38168 ft 477 kts 226°
2026-04-26 17:30 34.43772 -27.59478 38165 ft 477 kts 226°
2026-04-26 17:31 34.38728 -27.64642 38162 ft 477 kts 227°
2026-04-26 17:31 34.33647 -27.69836 38159 ft 478 kts 227°
2026-04-26 17:32 34.28560 -27.75026 38163 ft 478 kts 226°
2026-04-26 17:32 34.23475 -27.80207 38159 ft 478 kts 226°
2026-04-26 17:33 34.18387 -27.85382 38163 ft 477 kts 226°
2026-04-26 17:34 34.10768 -27.93116 38146 ft 477 kts 226°
2026-04-26 17:34 34.05713 -27.98237 38162 ft 477 kts 227°
2026-04-26 17:35 34.00625 -28.03383 38165 ft 477 kts 226°
2026-04-26 17:35 33.95538 -28.08520 38148 ft 477 kts 226°
2026-04-26 17:36 33.90458 -28.13640 38162 ft 475 kts 226°
2026-04-26 17:36 33.85392 -28.18738 38162 ft 474 kts 226°
2026-04-26 17:37 33.80323 -28.23833 38145 ft 474 kts 226°
2026-04-26 17:37 33.75258 -28.28915 38159 ft 474 kts 226°
2026-04-26 17:38 33.67650 -28.36534 38159 ft 474 kts 226°
2026-04-26 17:38 33.62574 -28.41607 38161 ft 474 kts 226°
2026-04-26 17:39 33.57496 -28.46673 38158 ft 474 kts 226°
2026-04-26 17:39 33.52455 -28.51696 38159 ft 474 kts 226°
2026-04-26 17:40 33.48200 -28.55928 38151 ft 474 kts 226°
2026-04-26 17:40 33.42303 -28.61784 38157 ft 474 kts 226°
2026-04-26 17:41 33.37225 -28.66819 38140 ft 474 kts 226°
2026-04-26 17:41 33.32159 -28.71833 38157 ft 472 kts 226°
2026-04-26 17:42 33.27125 -28.76808 38159 ft 471 kts 226°
2026-04-26 17:42 33.22070 -28.81798 38160 ft 471 kts 226°
2026-04-26 17:43 33.17009 -28.86785 38155 ft 471 kts 226°
2026-04-26 17:43 33.11951 -28.91762 38158 ft 471 kts 226°
2026-04-26 17:44 33.06888 -28.96735 38149 ft 471 kts 226°
2026-04-26 17:44 33.01828 -29.01697 38157 ft 470 kts 226°
2026-04-26 17:45 32.96780 -29.06640 38157 ft 470 kts 226°
2026-04-26 17:45 32.91731 -29.11578 38157 ft 469 kts 226°
2026-04-26 17:46 32.86684 -29.16506 38137 ft 470 kts 226°
2026-04-26 17:46 32.81658 -29.21405 38154 ft 469 kts 226°
2026-04-26 17:47 32.77423 -29.25528 38147 ft 469 kts 226°
2026-04-26 17:47 32.71554 -29.31231 38156 ft 468 kts 226°
2026-04-26 17:48 32.66521 -29.36116 38160 ft 467 kts 226°
2026-04-26 17:48 32.61486 -29.40996 38156 ft 467 kts 226°
2026-04-26 17:49 32.56446 -29.45873 38158 ft 467 kts 226°
2026-04-26 17:49 32.51406 -29.50742 38164 ft 467 kts 226°
2026-04-26 17:50 32.46369 -29.55600 38162 ft 467 kts 226°
2026-04-26 17:50 32.41342 -29.60441 38162 ft 465 kts 226°
2026-04-26 17:51 32.36351 -29.65241 38162 ft 465 kts 226°
2026-04-26 17:51 32.31330 -29.70064 38158 ft 465 kts 226°
2026-04-26 17:52 32.26303 -29.74885 38157 ft 465 kts 226°
2026-04-26 17:52 32.21269 -29.79705 38157 ft 465 kts 226°
2026-04-26 17:53 32.16238 -29.84515 38158 ft 465 kts 226°
2026-04-26 17:54 32.08752 -29.91657 38160 ft 463 kts 226°
2026-04-26 17:54 32.03750 -29.96424 38164 ft 462 kts 226°
2026-04-26 17:55 31.98741 -30.01189 38162 ft 463 kts 225°
2026-04-26 17:55 31.93704 -30.05924 38164 ft 463 kts 225°
2026-04-26 17:56 31.88657 -30.10635 38163 ft 463 kts 225°
2026-04-26 17:57 31.78602 -30.20018 38162 ft 460 kts 225°
2026-04-26 17:57 31.73582 -30.24701 38163 ft 460 kts 225°
2026-04-26 17:58 31.63565 -30.34023 38162 ft 460 kts 225°
2026-04-26 17:59 31.56027 -30.41020 38154 ft 460 kts 225°
2026-04-26 17:59 31.51001 -30.45676 38159 ft 460 kts 225°
2026-04-26 18:00 31.45979 -30.50322 38163 ft 459 kts 225°
2026-04-26 18:00 31.40994 -30.54928 38164 ft 459 kts 225°
2026-04-26 18:01 31.35976 -30.59558 38162 ft 459 kts 225°
2026-04-26 18:01 31.30957 -30.64182 38161 ft 459 kts 225°
2026-04-26 18:02 31.27591 -30.67281 38172 ft 460 kts 225°
2026-04-26 18:02 31.20888 -30.73441 38162 ft 460 kts 225°
2026-04-26 18:03 31.15885 -30.78030 38163 ft 459 kts 225°
2026-04-26 18:03 31.10854 -30.82640 38162 ft 459 kts 225°
2026-04-26 18:04 31.05817 -30.87248 38162 ft 459 kts 225°
2026-04-26 18:05 30.98270 -30.94142 38162 ft 459 kts 225°
2026-04-26 18:05 30.94085 -30.97959 38151 ft 460 kts 225°
2026-04-26 18:06 30.89046 -31.02548 38164 ft 459 kts 225°
2026-04-26 18:06 30.83192 -31.07871 38162 ft 459 kts 225°
2026-04-26 18:07 30.78975 -31.11701 38162 ft 459 kts 225°
2026-04-26 18:07 30.73942 -31.16267 38162 ft 459 kts 225°
2026-04-26 18:08 30.68937 -31.20800 38162 ft 459 kts 225°
2026-04-26 18:08 30.63900 -31.25357 38306 ft 459 kts 225°
2026-04-26 18:08 30.61378 -31.27636 38524 ft 458 kts 225°
2026-04-26 18:09 30.58865 -31.29903 38761 ft 457 kts 225°
2026-04-26 18:09 30.56355 -31.32167 38928 ft 456 kts 225°
2026-04-26 18:09 30.53849 -31.34426 39076 ft 455 kts 225°
2026-04-26 18:09 30.51353 -31.36676 39197 ft 455 kts 225°
2026-04-26 18:10 30.48857 -31.38925 39317 ft 454 kts 225°
2026-04-26 18:10 30.46353 -31.41179 39438 ft 454 kts 225°
2026-04-26 18:10 30.43853 -31.43429 39556 ft 454 kts 225°
2026-04-26 18:10 30.41358 -31.45671 39661 ft 454 kts 225°
2026-04-26 18:11 30.38863 -31.47912 39777 ft 454 kts 225°
2026-04-26 18:11 30.36399 -31.50124 39885 ft 453 kts 225°
2026-04-26 18:11 30.33902 -31.52364 39951 ft 453 kts 225°
2026-04-26 18:12 30.28917 -31.56832 40138 ft 453 kts 225°
2026-04-26 18:12 30.23911 -31.61314 40158 ft 455 kts 225°
2026-04-26 18:13 30.18890 -31.65801 40156 ft 455 kts 225°
2026-04-26 18:13 30.13881 -31.70271 40159 ft 455 kts 225°
2026-04-26 18:14 30.08864 -31.74743 40161 ft 455 kts 225°
2026-04-26 18:14 30.03844 -31.79213 40161 ft 455 kts 225°
2026-04-26 18:15 29.98865 -31.83639 40162 ft 455 kts 224°
2026-04-26 18:15 29.93848 -31.88093 40163 ft 455 kts 224°
2026-04-26 18:16 29.88835 -31.92539 40162 ft 455 kts 224°
2026-04-26 18:16 29.81299 -31.99211 40159 ft 455 kts 224°
2026-04-26 18:17 29.76314 -32.03617 40160 ft 455 kts 224°
2026-04-26 18:17 29.71297 -32.08046 40152 ft 454 kts 224°
2026-04-26 18:18 29.66278 -32.12470 40156 ft 454 kts 224°
2026-04-26 18:18 29.61256 -32.16892 40160 ft 454 kts 224°
2026-04-26 18:19 29.56237 -32.21306 40160 ft 454 kts 224°
2026-04-26 18:19 29.51211 -32.25720 40159 ft 454 kts 224°
2026-04-26 18:20 29.46218 -32.30099 40159 ft 454 kts 224°
2026-04-26 18:20 29.42005 -32.33790 40160 ft 454 kts 224°
2026-04-26 18:21 29.36164 -32.38901 40147 ft 454 kts 224°
2026-04-26 18:21 29.31139 -32.43291 40162 ft 454 kts 224°
2026-04-26 18:22 29.26110 -32.47680 40162 ft 455 kts 224°
2026-04-26 18:22 29.21065 -32.52077 40160 ft 455 kts 224°
2026-04-26 18:23 29.16033 -32.56457 40159 ft 455 kts 224°
2026-04-26 18:23 29.11023 -32.60811 40159 ft 455 kts 224°
2026-04-26 18:24 29.05987 -32.65184 40159 ft 454 kts 224°
2026-04-26 18:24 29.00957 -32.69544 40160 ft 453 kts 224°
2026-04-26 18:25 28.95937 -32.73892 40159 ft 453 kts 224°
2026-04-26 18:25 28.90907 -32.78243 40159 ft 453 kts 224°
2026-04-26 18:26 28.85879 -32.82587 40157 ft 453 kts 224°
2026-04-26 18:26 28.80847 -32.86929 40157 ft 453 kts 224°
2026-04-26 18:27 28.75824 -32.91258 40156 ft 453 kts 224°
2026-04-26 18:27 28.70828 -32.95556 40155 ft 452 kts 224°
2026-04-26 18:28 28.65805 -32.99875 40156 ft 452 kts 224°
2026-04-26 18:28 28.60787 -33.04184 40157 ft 452 kts 224°
2026-04-26 18:29 28.55768 -33.08487 40156 ft 452 kts 224°
2026-04-26 18:29 28.50741 -33.12793 40157 ft 452 kts 224°
2026-04-26 18:30 28.45716 -33.17091 40152 ft 452 kts 224°
2026-04-26 18:30 28.40692 -33.21383 40142 ft 451 kts 225°
2026-04-26 18:31 28.35679 -33.25660 40154 ft 451 kts 225°
2026-04-26 18:31 28.30669 -33.29930 40151 ft 450 kts 225°
2026-04-26 18:32 28.25686 -33.34174 40153 ft 450 kts 225°
2026-04-26 18:32 28.20671 -33.38438 40152 ft 450 kts 225°
2026-04-26 18:33 28.15652 -33.42700 40137 ft 451 kts 225°
2026-04-26 18:33 28.10635 -33.46955 40154 ft 449 kts 225°
2026-04-26 18:34 28.05626 -33.51197 40152 ft 448 kts 225°
2026-04-26 18:34 28.00635 -33.55420 40152 ft 448 kts 225°
2026-04-26 18:35 27.95677 -33.59612 40153 ft 448 kts 225°
2026-04-26 18:35 27.90679 -33.63832 40152 ft 448 kts 225°
2026-04-26 18:36 27.85683 -33.68045 40156 ft 448 kts 225°
2026-04-26 18:36 27.80686 -33.72253 40147 ft 448 kts 226°
2026-04-26 18:37 27.75691 -33.76453 40140 ft 447 kts 226°
2026-04-26 18:37 27.70706 -33.80642 40151 ft 446 kts 226°
2026-04-26 18:38 27.65755 -33.84797 40151 ft 446 kts 226°
2026-04-26 18:38 27.60771 -33.88977 40151 ft 446 kts 226°
2026-04-26 18:39 27.55787 -33.93150 40151 ft 446 kts 226°
2026-04-26 18:39 27.50796 -33.97324 40151 ft 446 kts 226°
2026-04-26 18:40 27.45808 -34.01491 40151 ft 446 kts 226°
2026-04-26 18:40 27.40855 -34.05624 40144 ft 446 kts 226°
2026-04-26 18:41 27.35838 -34.09804 40149 ft 446 kts 226°
2026-04-26 18:41 27.30888 -34.13926 40151 ft 445 kts 226°
2026-04-26 18:42 27.25900 -34.18075 40154 ft 446 kts 226°
2026-04-26 18:42 27.20917 -34.22213 40144 ft 445 kts 226°
2026-04-26 18:43 27.15932 -34.26348 40154 ft 445 kts 226°
2026-04-26 18:43 27.10958 -34.30469 40139 ft 444 kts 227°
2026-04-26 18:44 27.05978 -34.34591 40156 ft 444 kts 227°
2026-04-26 18:44 27.01015 -34.38696 40144 ft 443 kts 227°
2026-04-26 18:45 26.96044 -34.42803 40144 ft 443 kts 227°
2026-04-26 18:45 26.91110 -34.46873 40161 ft 443 kts 227°
2026-04-26 18:46 26.86142 -34.50967 40158 ft 443 kts 226°
2026-04-26 18:46 26.81181 -34.55050 40158 ft 442 kts 226°
2026-04-26 18:47 26.76221 -34.59129 40148 ft 443 kts 226°
2026-04-26 18:47 26.71247 -34.63216 40154 ft 443 kts 226°
2026-04-26 18:48 26.66280 -34.67290 40154 ft 443 kts 226°
2026-04-26 18:48 26.61335 -34.71343 40154 ft 443 kts 226°
2026-04-26 18:49 26.56361 -34.75415 40150 ft 443 kts 226°
2026-04-26 18:49 26.51396 -34.79474 40154 ft 442 kts 226°
2026-04-26 18:50 26.46434 -34.83527 40134 ft 442 kts 226°
2026-04-26 18:50 26.41463 -34.87584 40151 ft 442 kts 226°
2026-04-26 18:51 26.36485 -34.91642 40157 ft 443 kts 226°
2026-04-26 18:51 26.31508 -34.95694 40157 ft 443 kts 226°
2026-04-26 18:52 26.27368 -34.99061 40154 ft 443 kts 226°
2026-04-26 18:52 26.21585 -35.03758 40154 ft 442 kts 226°
2026-04-26 18:53 26.16619 -35.07788 40157 ft 442 kts 226°
2026-04-26 18:53 26.11651 -35.11816 40159 ft 442 kts 226°
2026-04-26 18:54 26.06677 -35.15846 40153 ft 443 kts 226°
2026-04-26 18:54 26.01698 -35.19873 40156 ft 443 kts 226°
2026-04-26 18:55 25.97559 -35.23218 40153 ft 443 kts 226°
2026-04-26 18:55 25.91764 -35.27895 40153 ft 442 kts 226°
2026-04-26 18:56 25.86787 -35.31908 40157 ft 442 kts 226°
2026-04-26 18:56 25.82619 -35.35265 40157 ft 442 kts 226°
2026-04-26 18:57 25.78478 -35.38598 40156 ft 442 kts 226°
2026-04-26 18:57 25.72689 -35.43253 40156 ft 442 kts 226°
2026-04-26 18:58 25.67709 -35.47252 40157 ft 442 kts 226°
2026-04-26 18:58 25.62731 -35.51246 40151 ft 442 kts 225°
2026-04-26 18:59 25.57744 -35.55241 40156 ft 442 kts 225°
2026-04-26 18:59 25.52787 -35.59209 40157 ft 442 kts 225°
2026-04-26 19:00 25.47801 -35.63197 40154 ft 442 kts 225°
2026-04-26 19:00 25.42806 -35.67189 40158 ft 443 kts 225°
2026-04-26 19:01 25.37811 -35.71175 40158 ft 443 kts 225°
2026-04-26 19:01 25.32838 -35.75138 40156 ft 443 kts 225°
2026-04-26 19:02 25.27825 -35.79129 40150 ft 443 kts 225°
2026-04-26 19:02 25.23670 -35.82435 40167 ft 443 kts 225°
2026-04-26 19:03 25.17827 -35.87080 40148 ft 443 kts 225°
2026-04-26 19:03 25.12822 -35.91054 40155 ft 444 kts 225°
2026-04-26 19:04 25.07834 -35.95011 40156 ft 444 kts 225°
2026-04-26 19:04 25.02809 -35.98991 40158 ft 444 kts 225°
2026-04-26 19:05 24.95274 -36.04952 40155 ft 444 kts 225°
2026-04-26 19:06 24.90247 -36.08925 40157 ft 444 kts 225°
2026-04-26 19:06 24.85212 -36.12900 40157 ft 445 kts 225°
2026-04-26 19:07 24.80178 -36.16870 40162 ft 446 kts 225°
2026-04-26 19:07 24.75130 -36.20848 40158 ft 446 kts 225°
2026-04-26 19:08 24.70081 -36.24821 40160 ft 446 kts 225°
2026-04-26 19:08 24.65062 -36.28767 40155 ft 447 kts 225°
2026-04-26 19:09 24.60003 -36.32739 40157 ft 446 kts 225°
2026-04-26 19:09 24.54946 -36.36706 40163 ft 447 kts 225°
2026-04-26 19:10 24.49890 -36.40670 40159 ft 447 kts 224°
2026-04-26 19:10 24.44818 -36.44643 40172 ft 448 kts 224°
2026-04-26 19:11 24.39740 -36.48615 40168 ft 448 kts 224°
2026-04-26 19:11 24.34662 -36.52583 40152 ft 448 kts 224°
2026-04-26 19:12 24.29578 -36.56551 40151 ft 448 kts 224°
2026-04-26 19:12 24.24530 -36.60487 40167 ft 448 kts 224°
2026-04-26 19:13 24.19442 -36.64451 40132 ft 448 kts 224°
2026-04-26 19:13 24.14355 -36.68412 40157 ft 449 kts 224°
2026-04-26 19:14 24.09261 -36.72373 40161 ft 449 kts 224°
2026-04-26 19:14 24.04155 -36.76338 40157 ft 449 kts 224°
2026-04-26 19:15 23.99091 -36.80268 40160 ft 449 kts 224°
2026-04-26 19:15 23.93961 -36.84244 40159 ft 449 kts 224°
2026-04-26 19:16 23.88864 -36.88192 40157 ft 449 kts 224°
2026-04-26 19:16 23.83797 -36.92113 40155 ft 449 kts 224°
2026-04-26 19:17 23.78691 -36.96059 40157 ft 449 kts 224°
2026-04-26 19:17 23.73578 -37.00007 40152 ft 449 kts 224°
2026-04-26 19:18 23.68471 -37.03947 40159 ft 449 kts 224°
2026-04-26 19:18 23.63363 -37.07884 40162 ft 449 kts 224°
2026-04-26 19:19 23.58262 -37.11812 40154 ft 449 kts 224°
2026-04-26 19:19 23.53187 -37.15715 40142 ft 449 kts 224°
2026-04-26 19:20 23.48075 -37.19643 40157 ft 449 kts 223°
2026-04-26 19:20 23.42964 -37.23567 40146 ft 449 kts 223°
2026-04-26 19:21 23.37848 -37.27491 40154 ft 449 kts 223°
2026-04-26 19:21 23.32736 -37.31407 40154 ft 449 kts 223°
2026-04-26 19:22 23.27624 -37.35321 40154 ft 449 kts 223°
2026-04-26 19:22 23.22501 -37.39239 40154 ft 449 kts 223°
2026-04-26 19:23 23.17386 -37.43146 40153 ft 449 kts 223°
2026-04-26 19:23 23.12308 -37.47022 40154 ft 449 kts 223°
2026-04-26 19:24 23.07200 -37.50918 40153 ft 448 kts 223°
2026-04-26 19:24 22.99542 -37.56749 40150 ft 448 kts 223°
2026-04-26 19:25 22.95299 -37.59978 40147 ft 448 kts 223°
2026-04-26 19:25 22.89335 -37.64513 40151 ft 448 kts 223°
2026-04-26 19:26 22.84226 -37.68392 40148 ft 448 kts 223°
2026-04-26 19:26 22.79125 -37.72262 40148 ft 447 kts 223°
2026-04-26 19:27 22.74029 -37.76124 40151 ft 447 kts 223°
2026-04-26 19:27 22.68928 -37.79987 40152 ft 447 kts 223°
2026-04-26 19:28 22.63855 -37.83825 40148 ft 447 kts 223°
2026-04-26 19:28 22.58750 -37.87683 40151 ft 447 kts 223°
2026-04-26 19:29 22.53646 -37.91538 40151 ft 447 kts 223°
2026-04-26 19:29 22.48537 -37.95392 40151 ft 447 kts 223°
2026-04-26 19:30 22.43426 -37.99245 40151 ft 448 kts 223°
2026-04-26 19:30 22.39180 -38.02443 40148 ft 448 kts 223°
2026-04-26 19:31 22.33231 -38.06919 40148 ft 448 kts 223°
2026-04-26 19:31 22.28118 -38.10762 40149 ft 447 kts 223°
2026-04-26 19:32 22.23002 -38.14605 40138 ft 448 kts 222°
2026-04-26 19:32 22.17878 -38.18451 40140 ft 449 kts 222°
2026-04-26 19:33 22.12744 -38.22300 40150 ft 450 kts 222°
2026-04-26 19:33 22.07604 -38.26148 40134 ft 450 kts 222°
2026-04-26 19:34 22.02466 -38.29993 40152 ft 450 kts 222°
2026-04-26 19:34 21.97321 -38.33839 40153 ft 449 kts 222°
2026-04-26 19:35 21.92180 -38.37680 40137 ft 450 kts 222°
2026-04-26 19:35 21.87029 -38.41525 40145 ft 451 kts 222°
2026-04-26 19:36 21.83613 -38.44073 40136 ft 452 kts 222°
2026-04-26 19:36 21.76723 -38.49206 40141 ft 452 kts 221°
2026-04-26 19:37 21.71552 -38.53054 40145 ft 452 kts 221°
2026-04-26 19:37 21.66374 -38.56904 40141 ft 452 kts 221°
2026-04-26 19:38 21.61201 -38.60747 40144 ft 452 kts 221°
2026-04-26 19:38 21.56025 -38.64590 40143 ft 453 kts 221°
2026-04-26 19:39 21.50839 -38.68437 40136 ft 453 kts 221°
2026-04-26 19:39 21.45647 -38.72284 40140 ft 453 kts 221°
2026-04-26 19:40 21.40455 -38.76128 40140 ft 453 kts 221°
2026-04-26 19:40 21.35254 -38.79974 40140 ft 453 kts 221°
2026-04-26 19:41 21.30055 -38.83817 40137 ft 453 kts 221°
2026-04-26 19:41 21.26613 -38.86358 40126 ft 453 kts 221°
2026-04-26 19:42 21.19680 -38.91476 40136 ft 455 kts 221°
2026-04-26 19:42 21.14456 -38.95327 40133 ft 455 kts 221°
2026-04-26 19:43 21.09234 -38.99172 40134 ft 455 kts 221°
2026-04-26 19:43 21.04898 -39.02362 40131 ft 455 kts 221°
2026-04-26 19:44 20.99675 -39.06202 40132 ft 455 kts 221°
2026-04-26 19:44 20.94449 -39.10042 40117 ft 455 kts 221°
2026-04-26 19:45 20.89218 -39.13883 40128 ft 457 kts 220°
2026-04-26 19:45 20.83976 -39.17728 40128 ft 457 kts 220°
2026-04-26 19:46 20.78728 -39.21572 40126 ft 457 kts 220°
2026-04-26 19:46 20.73655 -39.25618 40129 ft 451 kts 227°
2026-04-26 19:47 20.69813 -39.29370 40125 ft 450 kts 229°
2026-04-26 19:47 20.64534 -39.34717 40127 ft 450 kts 229°
2026-04-26 19:48 20.60006 -39.39325 40124 ft 450 kts 229°
2026-04-26 19:48 20.55446 -39.43947 40126 ft 452 kts 228°
2026-04-26 19:49 20.50880 -39.48560 40127 ft 452 kts 228°
2026-04-26 19:49 20.46305 -39.53174 40124 ft 452 kts 228°
2026-04-26 19:50 20.41761 -39.57754 40126 ft 452 kts 228°
2026-04-26 19:50 20.37188 -39.62361 40124 ft 452 kts 228°
2026-04-26 19:51 20.32613 -39.66965 40124 ft 453 kts 228°
2026-04-26 19:51 20.28035 -39.71569 40124 ft 453 kts 228°
2026-04-26 19:52 20.23454 -39.76172 40114 ft 453 kts 228°
2026-04-26 19:52 20.18859 -39.80785 40117 ft 454 kts 228°
2026-04-26 19:53 20.14264 -39.85393 40120 ft 454 kts 228°
2026-04-26 19:53 20.09689 -39.89979 40119 ft 454 kts 228°
2026-04-26 19:54 20.05090 -39.94583 40119 ft 454 kts 227°
2026-04-26 19:54 20.00486 -39.99189 40118 ft 454 kts 227°
2026-04-26 19:55 19.95872 -40.03802 40111 ft 454 kts 227°
2026-04-26 19:55 19.91260 -40.08408 40115 ft 455 kts 227°
2026-04-26 19:56 19.86669 -40.12991 40112 ft 456 kts 227°
2026-04-26 19:56 19.82038 -40.17609 40110 ft 456 kts 227°
2026-04-26 19:57 19.77407 -40.22222 40117 ft 456 kts 227°
2026-04-26 19:57 19.72777 -40.26831 40115 ft 456 kts 227°
2026-04-26 19:58 19.68171 -40.31412 40115 ft 457 kts 227°
2026-04-26 19:58 19.63534 -40.36020 40112 ft 457 kts 227°
2026-04-26 19:59 19.58892 -40.40630 40115 ft 457 kts 227°
2026-04-26 19:59 19.54255 -40.45231 40109 ft 457 kts 227°
2026-04-26 20:00 19.49601 -40.49845 40113 ft 458 kts 227°
2026-04-26 20:00 19.44949 -40.54453 40113 ft 458 kts 227°
2026-04-26 20:01 19.40286 -40.59067 40110 ft 458 kts 227°
2026-04-26 20:01 19.35655 -40.63647 40110 ft 458 kts 227°
2026-04-26 20:02 19.30994 -40.68252 40107 ft 458 kts 227°
2026-04-26 20:02 19.27089 -40.72107 40111 ft 458 kts 227°
2026-04-26 20:03 19.21659 -40.77464 40105 ft 459 kts 227°
2026-04-26 20:03 19.16989 -40.82068 40105 ft 459 kts 227°
2026-04-26 20:04 19.12316 -40.86670 40104 ft 459 kts 227°
2026-04-26 20:04 19.07641 -40.91271 40102 ft 459 kts 227°
2026-04-26 20:05 19.02961 -40.95872 40102 ft 459 kts 226°
2026-04-26 20:05 18.98276 -41.00475 40102 ft 460 kts 226°
2026-04-26 20:06 18.93593 -41.05073 40102 ft 460 kts 226°
2026-04-26 20:06 18.88929 -41.09648 40102 ft 460 kts 226°
2026-04-26 20:07 18.84243 -41.14241 40096 ft 460 kts 226°
2026-04-26 20:07 18.79548 -41.18839 40099 ft 461 kts 226°
2026-04-26 20:08 18.74838 -41.23448 40102 ft 461 kts 226°
2026-04-26 20:08 18.70156 -41.28026 40099 ft 461 kts 226°
2026-04-26 20:09 18.65450 -41.32622 40098 ft 461 kts 226°
2026-04-26 20:09 18.60733 -41.37227 40096 ft 462 kts 226°
2026-04-26 20:10 18.56018 -41.41828 40097 ft 462 kts 226°
2026-04-26 20:10 18.51299 -41.46426 40097 ft 462 kts 226°
2026-04-26 20:11 18.46576 -41.51027 40094 ft 463 kts 226°
2026-04-26 20:12 18.39505 -41.57907 40092 ft 463 kts 226°
2026-04-26 20:12 18.34767 -41.62512 40091 ft 463 kts 226°
2026-04-26 20:13 18.30028 -41.67115 40091 ft 463 kts 226°
2026-04-26 20:13 18.25295 -41.71708 40089 ft 463 kts 226°
2026-04-26 20:14 18.20541 -41.76318 40091 ft 463 kts 226°
2026-04-26 20:14 18.15796 -41.80916 40089 ft 464 kts 226°
2026-04-26 20:15 18.11045 -41.85516 40088 ft 465 kts 226°
2026-04-26 20:15 18.06285 -41.90122 40088 ft 465 kts 226°
2026-04-26 20:16 18.01522 -41.94727 40082 ft 465 kts 226°
2026-04-26 20:16 17.96784 -41.99303 40079 ft 465 kts 226°
2026-04-26 20:17 17.92013 -42.03909 40082 ft 466 kts 226°
2026-04-26 20:17 17.87236 -42.08515 40079 ft 466 kts 226°
2026-04-26 20:18 17.82463 -42.13116 40081 ft 466 kts 226°
2026-04-26 20:18 17.77685 -42.17718 40079 ft 466 kts 225°
2026-04-26 20:19 17.72896 -42.22326 40081 ft 467 kts 225°
2026-04-26 20:19 17.68100 -42.26938 40078 ft 467 kts 225°
2026-04-26 20:20 17.63307 -42.31543 40078 ft 467 kts 225°
2026-04-26 20:20 17.58519 -42.36141 40078 ft 467 kts 225°
2026-04-26 20:21 17.53725 -42.40740 40080 ft 467 kts 225°
2026-04-26 20:21 17.48957 -42.45311 40078 ft 467 kts 225°
2026-04-26 20:22 17.44151 -42.49915 40077 ft 468 kts 225°
2026-04-26 20:22 17.39338 -42.54522 40075 ft 468 kts 225°
2026-04-26 20:23 17.34534 -42.59118 40076 ft 468 kts 225°
2026-04-26 20:23 17.29728 -42.63712 40071 ft 468 kts 225°
2026-04-26 20:24 17.24948 -42.68277 40072 ft 468 kts 225°
2026-04-26 20:24 17.20131 -42.72874 40072 ft 468 kts 225°
2026-04-26 20:25 17.15317 -42.77466 40069 ft 468 kts 225°
2026-04-26 20:25 17.10499 -42.82058 40068 ft 468 kts 225°
2026-04-26 20:26 17.05675 -42.86652 40070 ft 469 kts 225°
2026-04-26 20:26 17.00851 -42.91243 40069 ft 469 kts 225°
2026-04-26 20:27 16.96058 -42.95801 40067 ft 469 kts 225°
2026-04-26 20:27 16.91236 -43.00383 40067 ft 469 kts 225°
2026-04-26 20:28 16.86404 -43.04971 40066 ft 469 kts 225°
2026-04-26 20:28 16.81578 -43.09551 40067 ft 469 kts 225°
2026-04-26 20:29 16.76746 -43.14133 40064 ft 469 kts 224°
2026-04-26 20:29 16.71909 -43.18715 40067 ft 470 kts 224°
2026-04-26 20:30 16.67070 -43.23297 40067 ft 470 kts 224°
2026-04-26 20:30 16.62257 -43.27851 40067 ft 470 kts 224°
2026-04-26 20:31 16.57418 -43.32427 40065 ft 470 kts 224°
2026-04-26 20:31 16.52577 -43.37001 40064 ft 470 kts 224°
2026-04-26 20:32 16.47733 -43.41574 40063 ft 470 kts 224°
2026-04-26 20:32 16.43710 -43.45371 40061 ft 470 kts 224°
2026-04-26 20:33 16.38864 -43.49940 40060 ft 470 kts 224°
2026-04-26 20:33 16.34020 -43.54504 40060 ft 470 kts 224°
2026-04-26 20:34 16.29174 -43.59067 40061 ft 470 kts 224°
2026-04-26 20:34 16.24325 -43.63630 40059 ft 470 kts 224°
2026-04-26 20:35 16.19477 -43.68189 40058 ft 470 kts 224°
2026-04-26 20:35 16.14624 -43.72749 40060 ft 470 kts 224°
2026-04-26 20:36 16.09773 -43.77305 40048 ft 469 kts 224°
2026-04-26 20:36 16.04916 -43.81862 40052 ft 469 kts 224°
2026-04-26 20:37 16.00098 -43.86380 40050 ft 469 kts 224°
2026-04-26 20:37 15.95244 -43.90929 40052 ft 469 kts 224°
2026-04-26 20:38 15.90394 -43.95471 40057 ft 469 kts 224°
2026-04-26 20:38 15.85536 -44.00018 40057 ft 469 kts 224°
2026-04-26 20:39 15.80687 -44.04553 40051 ft 469 kts 223°
2026-04-26 20:39 15.75834 -44.09088 40053 ft 469 kts 223°
2026-04-26 20:40 15.70978 -44.13623 40053 ft 469 kts 223°
2026-04-26 20:40 15.66156 -44.18124 40050 ft 469 kts 223°
2026-04-26 20:41 15.61293 -44.22659 40053 ft 469 kts 223°
2026-04-26 20:41 15.56433 -44.27189 40050 ft 469 kts 223°
2026-04-26 20:42 15.51568 -44.31720 40052 ft 469 kts 223°
2026-04-26 20:42 15.46735 -44.36219 40050 ft 469 kts 223°
2026-04-26 20:43 15.41869 -44.40746 40048 ft 470 kts 223°
2026-04-26 20:43 15.36991 -44.45281 40047 ft 471 kts 223°
2026-04-26 20:44 15.32099 -44.49826 40047 ft 472 kts 223°
2026-04-26 20:44 15.27215 -44.54360 40047 ft 472 kts 223°
2026-04-26 20:45 15.22346 -44.58877 40047 ft 472 kts 223°
2026-04-26 20:45 15.17462 -44.63406 40046 ft 471 kts 223°
2026-04-26 20:46 15.12561 -44.67947 40044 ft 471 kts 223°
2026-04-26 20:46 15.07674 -44.72472 40046 ft 472 kts 223°
2026-04-26 20:47 15.02808 -44.76976 40045 ft 472 kts 223°
2026-04-26 20:47 14.97911 -44.81504 40042 ft 472 kts 223°
2026-04-26 20:48 14.93004 -44.86040 40045 ft 472 kts 223°
2026-04-26 20:48 14.88105 -44.90564 40044 ft 472 kts 223°
2026-04-26 20:49 14.83230 -44.95064 40041 ft 472 kts 223°
2026-04-26 20:49 14.78328 -44.99586 40038 ft 472 kts 223°
2026-04-26 20:50 14.73422 -45.04108 40036 ft 473 kts 223°
2026-04-26 20:50 14.68510 -45.08634 40053 ft 473 kts 223°
2026-04-26 20:51 14.63590 -45.13163 40037 ft 474 kts 223°
2026-04-26 20:51 14.58674 -45.17687 40045 ft 474 kts 223°
2026-04-26 20:52 14.53750 -45.22215 40049 ft 474 kts 223°
2026-04-26 20:52 14.48825 -45.26741 40038 ft 474 kts 223°
2026-04-26 20:53 14.43897 -45.31267 40036 ft 474 kts 222°
2026-04-26 20:53 14.38999 -45.35763 40046 ft 474 kts 223°
2026-04-26 20:54 14.34059 -45.40295 40035 ft 474 kts 222°
2026-04-26 20:54 14.29122 -45.44820 40049 ft 475 kts 223°
2026-04-26 20:55 14.24182 -45.49347 40036 ft 476 kts 223°
2026-04-26 20:55 14.19236 -45.53875 40034 ft 475 kts 222°
2026-04-26 20:56 14.14296 -45.58395 40051 ft 475 kts 222°
2026-04-26 20:56 14.09376 -45.62895 40030 ft 476 kts 222°
2026-04-26 20:57 14.04418 -45.67426 40041 ft 476 kts 222°
2026-04-26 20:57 13.99452 -45.71962 40038 ft 476 kts 222°
2026-04-26 20:58 13.94495 -45.76487 40024 ft 476 kts 222°
2026-04-26 20:58 13.89525 -45.81021 40036 ft 479 kts 222°
2026-04-26 20:59 13.84536 -45.85570 40034 ft 479 kts 222°
2026-04-26 20:59 13.79542 -45.90120 40025 ft 479 kts 222°
2026-04-26 21:00 13.74551 -45.94666 40039 ft 479 kts 222°
2026-04-26 21:00 13.69589 -45.99182 40032 ft 480 kts 222°
2026-04-26 21:01 13.64584 -46.03735 40036 ft 480 kts 222°
2026-04-26 21:01 13.59579 -46.08284 40029 ft 480 kts 222°
2026-04-26 21:02 13.54567 -46.12838 40028 ft 480 kts 222°
2026-04-26 21:02 13.49559 -46.17385 40026 ft 480 kts 221°
2026-04-26 21:03 13.44547 -46.21934 40036 ft 481 kts 221°
2026-04-26 21:03 13.39533 -46.26482 40025 ft 481 kts 221°
2026-04-26 21:04 13.34548 -46.31000 40028 ft 481 kts 221°
2026-04-26 21:04 13.29526 -46.35549 40027 ft 481 kts 221°
2026-04-26 21:05 13.24504 -46.40096 40023 ft 481 kts 221°
2026-04-26 21:05 13.19479 -46.44643 40019 ft 482 kts 221°
2026-04-26 21:06 13.14450 -46.49191 40022 ft 482 kts 221°
2026-04-26 21:06 13.09414 -46.53742 40012 ft 482 kts 221°
2026-04-26 21:07 13.04415 -46.58259 40022 ft 482 kts 221°
2026-04-26 21:07 12.99382 -46.62802 40021 ft 482 kts 221°
2026-04-26 21:08 12.94336 -46.67355 40015 ft 482 kts 221°
2026-04-26 21:08 12.89300 -46.71897 40024 ft 482 kts 221°
2026-04-26 21:09 12.84288 -46.76415 40025 ft 482 kts 221°
2026-04-26 21:09 12.79246 -46.80956 40016 ft 483 kts 221°
2026-04-26 21:10 12.74192 -46.85507 40023 ft 483 kts 221°
2026-04-26 21:10 12.69131 -46.90061 40020 ft 483 kts 221°
2026-04-26 21:11 12.64114 -46.94572 40015 ft 483 kts 221°
2026-04-26 21:11 12.59062 -46.99114 40029 ft 484 kts 220°
2026-04-26 21:12 12.53983 -47.03676 40030 ft 485 kts 220°
2026-04-26 21:12 12.48908 -47.08233 40013 ft 485 kts 220°
2026-04-26 21:13 12.43826 -47.12794 40020 ft 485 kts 220°
2026-04-26 21:13 12.38785 -47.17315 40021 ft 485 kts 220°
2026-04-26 21:14 12.33688 -47.21883 40016 ft 487 kts 220°
2026-04-26 21:14 12.28586 -47.26454 40018 ft 488 kts 220°
2026-04-26 21:15 12.23481 -47.31025 40015 ft 488 kts 220°
2026-04-26 21:15 12.18375 -47.35595 40016 ft 488 kts 220°
2026-04-26 21:16 12.13261 -47.40169 40016 ft 489 kts 219°
2026-04-26 21:16 12.08127 -47.44758 40014 ft 490 kts 219°
2026-04-26 21:17 12.03027 -47.49315 40021 ft 490 kts 219°
2026-04-26 21:17 11.97898 -47.53896 40012 ft 490 kts 220°
2026-04-26 21:18 11.92760 -47.58482 40011 ft 490 kts 219°
2026-04-26 21:18 11.87610 -47.63076 40011 ft 492 kts 219°
2026-04-26 21:19 11.82453 -47.67674 40012 ft 492 kts 220°
2026-04-26 21:19 11.77295 -47.72272 40012 ft 492 kts 219°
2026-04-26 21:20 11.72142 -47.76862 40011 ft 492 kts 219°
2026-04-26 21:20 11.67015 -47.81425 40012 ft 493 kts 219°
2026-04-26 21:21 11.61843 -47.86028 40011 ft 493 kts 219°
2026-04-26 21:21 11.57508 -47.89883 40011 ft 493 kts 219°
2026-04-26 21:22 11.52369 -47.94452 40008 ft 493 kts 219°
2026-04-26 21:22 11.47195 -47.99049 40009 ft 493 kts 220°
2026-04-26 21:23 11.39422 -48.05951 40007 ft 495 kts 219°
2026-04-26 21:23 11.34232 -48.10557 40006 ft 495 kts 219°
2026-04-26 21:24 11.29035 -48.15166 40006 ft 495 kts 219°
2026-04-26 21:24 11.23840 -48.19771 40010 ft 495 kts 219°
2026-04-26 21:25 11.18643 -48.24377 40007 ft 495 kts 220°
2026-04-26 21:25 11.13437 -48.28987 40007 ft 496 kts 220°
2026-04-26 21:26 11.08269 -48.33562 40007 ft 496 kts 219°
2026-04-26 21:26 11.03065 -48.38166 40007 ft 496 kts 219°
2026-04-26 21:27 10.97857 -48.42772 40008 ft 495 kts 219°
2026-04-26 21:27 10.92656 -48.47370 40003 ft 495 kts 219°
2026-04-26 21:28 10.87441 -48.51977 40004 ft 495 kts 219°
2026-04-26 21:28 10.82233 -48.56576 40004 ft 495 kts 219°
2026-04-26 21:29 10.77060 -48.61141 40003 ft 495 kts 219°
2026-04-26 21:29 10.71851 -48.65737 40004 ft 496 kts 219°
2026-04-26 21:30 10.66630 -48.70340 40003 ft 496 kts 219°
2026-04-26 21:30 10.61403 -48.74948 40002 ft 497 kts 219°
2026-04-26 21:31 10.56185 -48.79545 40000 ft 497 kts 219°
2026-04-26 21:31 10.50964 -48.84142 39999 ft 497 kts 219°
2026-04-26 21:32 10.45738 -48.88742 40001 ft 497 kts 219°
2026-04-26 21:32 10.40546 -48.93310 39998 ft 497 kts 219°
2026-04-26 21:33 10.35314 -48.97910 39998 ft 497 kts 219°
2026-04-26 21:33 10.30090 -49.02502 39997 ft 497 kts 219°
2026-04-26 21:34 10.24865 -49.07092 39996 ft 497 kts 219°
2026-04-26 21:34 10.19628 -49.11690 39995 ft 497 kts 219°
2026-04-26 21:35 10.14431 -49.16252 39996 ft 497 kts 219°
2026-04-26 21:35 10.09196 -49.20845 39997 ft 498 kts 219°
2026-04-26 21:36 10.03961 -49.25436 39996 ft 498 kts 219°
2026-04-26 21:36 9.98717 -49.30033 39996 ft 498 kts 219°
2026-04-26 21:37 9.93480 -49.34622 39994 ft 498 kts 219°
2026-04-26 21:37 9.88225 -49.39224 39994 ft 498 kts 219°
2026-04-26 21:38 9.82663 -49.43380 39994 ft 496 kts 211°
2026-04-26 21:38 9.76807 -49.47034 39991 ft 496 kts 209°
2026-04-26 21:39 9.70885 -49.50622 39990 ft 496 kts 210°
2026-04-26 21:39 9.64958 -49.54210 39990 ft 496 kts 209°
2026-04-26 21:40 9.59032 -49.57810 39991 ft 497 kts 210°
2026-04-26 21:40 9.53107 -49.61416 39990 ft 497 kts 210°
2026-04-26 21:41 9.47181 -49.65023 39989 ft 497 kts 210°
2026-04-26 21:41 9.41264 -49.68621 39989 ft 496 kts 210°
2026-04-26 21:42 9.35345 -49.72219 39988 ft 496 kts 210°
2026-04-26 21:42 9.29454 -49.75798 39988 ft 496 kts 209°
2026-04-26 21:43 9.23516 -49.79405 39987 ft 497 kts 210°
2026-04-26 21:43 9.17586 -49.83006 39986 ft 496 kts 209°
2026-04-26 21:44 9.11661 -49.86601 39989 ft 496 kts 210°
2026-04-26 21:44 9.05731 -49.90199 39989 ft 496 kts 210°
2026-04-26 21:45 8.99853 -49.93764 39986 ft 496 kts 210°
2026-04-26 21:45 8.93932 -49.97353 39987 ft 496 kts 210°
2026-04-26 21:46 8.88007 -50.00943 39981 ft 496 kts 209°
2026-04-26 21:46 8.82068 -50.04541 39983 ft 497 kts 209°
2026-04-26 21:47 8.76134 -50.08134 39981 ft 497 kts 210°
2026-04-26 21:47 8.70200 -50.11725 39978 ft 497 kts 209°
2026-04-26 21:48 8.64263 -50.15317 39980 ft 497 kts 210°
2026-04-26 21:48 8.58365 -50.18885 39980 ft 497 kts 210°
2026-04-26 21:49 8.52429 -50.22474 39980 ft 498 kts 209°
2026-04-26 21:49 8.46492 -50.26063 39978 ft 498 kts 209°
2026-04-26 21:50 8.41614 -50.29253 39979 ft 498 kts 212°
2026-04-26 21:50 8.34900 -50.33750 39976 ft 498 kts 212°
2026-04-26 21:51 8.29108 -50.37597 39976 ft 498 kts 212°
2026-04-26 21:51 8.23306 -50.41440 39976 ft 498 kts 212°
2026-04-26 21:52 8.17660 -50.45174 39978 ft 499 kts 212°
2026-04-26 21:52 8.11858 -50.49010 39977 ft 498 kts 212°
2026-04-26 21:53 8.06061 -50.52840 39972 ft 498 kts 212°
2026-04-26 21:53 8.00253 -50.56676 39973 ft 498 kts 212°
2026-04-26 21:54 7.94453 -50.60507 39969 ft 498 kts 212°
2026-04-26 21:54 7.88650 -50.64337 39968 ft 498 kts 212°
2026-04-26 21:55 7.82852 -50.68163 39971 ft 498 kts 212°
2026-04-26 21:55 7.77049 -50.71990 39969 ft 498 kts 212°
2026-04-26 21:56 7.71290 -50.75788 39970 ft 498 kts 212°
2026-04-26 21:56 7.65489 -50.79612 39970 ft 498 kts 212°
2026-04-26 21:57 7.59681 -50.83439 39964 ft 498 kts 212°
2026-04-26 21:57 7.53876 -50.87263 39964 ft 498 kts 212°
2026-04-26 21:58 7.48108 -50.91062 39967 ft 498 kts 212°
2026-04-26 21:58 7.42298 -50.94887 39965 ft 498 kts 212°
2026-04-26 21:59 7.36492 -50.98708 39965 ft 498 kts 212°
2026-04-26 21:59 7.30695 -51.02521 39964 ft 497 kts 212°
2026-04-26 22:00 7.24901 -51.06333 39966 ft 498 kts 212°
2026-04-26 22:00 7.19096 -51.10149 39966 ft 498 kts 212°
2026-04-26 22:01 7.13295 -51.13962 39964 ft 498 kts 212°
2026-04-26 22:01 7.07497 -51.17772 39965 ft 498 kts 212°
2026-04-26 22:02 7.02666 -51.20945 39963 ft 498 kts 212°
2026-04-26 22:02 6.95918 -51.25377 39961 ft 498 kts 212°
2026-04-26 22:03 6.90114 -51.29188 39958 ft 498 kts 212°
2026-04-26 22:03 6.84300 -51.33003 39959 ft 498 kts 212°
2026-04-26 22:04 6.78482 -51.36820 39959 ft 499 kts 212°
2026-04-26 22:04 6.72695 -51.40616 39957 ft 500 kts 212°
2026-04-26 22:05 6.66874 -51.44433 39960 ft 500 kts 212°
2026-04-26 22:05 6.61052 -51.48250 39929 ft 499 kts 212°
2026-04-26 22:06 6.58150 -51.50152 39434 ft 497 kts 212°
2026-04-26 22:06 6.55251 -51.52052 38808 ft 497 kts 212°
2026-04-26 22:06 6.52355 -51.53949 38100 ft 497 kts 212°
2026-04-26 22:06 6.49466 -51.55842 37437 ft 496 kts 212°
2026-04-26 22:07 6.46582 -51.57731 36798 ft 494 kts 211°
2026-04-26 22:07 6.43702 -51.59618 36138 ft 493 kts 211°
2026-04-26 22:07 6.40824 -51.61503 35465 ft 493 kts 211°
2026-04-26 22:07 6.38921 -51.62748 35016 ft 493 kts 211°
2026-04-26 22:08 6.35061 -51.65275 33993 ft 496 kts 211°
2026-04-26 22:08 6.32160 -51.67174 33131 ft 498 kts 211°
2026-04-26 22:08 6.29262 -51.69070 32514 ft 495 kts 211°
2026-04-26 22:08 6.26423 -51.70929 31980 ft 491 kts 211°
2026-04-26 22:09 6.23574 -51.72794 31431 ft 487 kts 211°
2026-04-26 22:09 6.20741 -51.74647 30882 ft 484 kts 211°
2026-04-26 22:09 6.17924 -51.76490 30320 ft 482 kts 211°
2026-04-26 22:09 6.15114 -51.78328 29724 ft 479 kts 211°
2026-04-26 22:10 6.12331 -51.80148 29153 ft 475 kts 211°
2026-04-26 22:10 6.09563 -51.81959 28606 ft 471 kts 211°
2026-04-26 22:10 6.06830 -51.83746 28073 ft 467 kts 211°
2026-04-26 22:10 6.04121 -51.85517 27541 ft 463 kts 211°
2026-04-26 22:11 6.02340 -51.86682 27179 ft 460 kts 211°
2026-04-26 22:11 5.99665 -51.88430 26667 ft 457 kts 211°
2026-04-26 22:11 5.97009 -51.90165 26142 ft 454 kts 210°
2026-04-26 22:11 5.94374 -51.91887 25618 ft 450 kts 210°
2026-04-26 22:12 5.91757 -51.93598 25092 ft 448 kts 210°
2026-04-26 22:12 5.88307 -51.95851 24393 ft 444 kts 210°
2026-04-26 22:12 5.86557 -51.96994 24039 ft 443 kts 210°
2026-04-26 22:12 5.83981 -51.98677 23506 ft 441 kts 210°
2026-04-26 22:13 5.81414 -52.00353 22905 ft 438 kts 210°
2026-04-26 22:13 5.78872 -52.02013 22366 ft 434 kts 210°
2026-04-26 22:13 5.76383 -52.03639 21832 ft 430 kts 210°
2026-04-26 22:13 5.73885 -52.05270 21305 ft 426 kts 210°
2026-04-26 22:14 5.71404 -52.06889 20780 ft 423 kts 210°
2026-04-26 22:14 5.68945 -52.08494 20233 ft 419 kts 210°
2026-04-26 22:14 5.66508 -52.10085 19722 ft 416 kts 211°
2026-04-26 22:14 5.64083 -52.11667 19177 ft 414 kts 211°
2026-04-26 22:15 5.61673 -52.13239 18638 ft 412 kts 211°
2026-04-26 22:15 5.59281 -52.14800 18105 ft 409 kts 211°
2026-04-26 22:15 5.56892 -52.16359 17529 ft 406 kts 211°
2026-04-26 22:15 5.54536 -52.17896 17000 ft 402 kts 211°
2026-04-26 22:16 5.52208 -52.19415 16479 ft 397 kts 211°
2026-04-26 22:16 5.49930 -52.20900 15967 ft 393 kts 211°
2026-04-26 22:16 5.47641 -52.22387 15427 ft 390 kts 210°
2026-04-26 22:16 5.45282 -52.23748 14749 ft 391 kts 206°
2026-04-26 22:17 5.42884 -52.25025 14195 ft 388 kts 206°
2026-04-26 22:17 5.40505 -52.26281 13673 ft 385 kts 206°
2026-04-26 22:17 5.38144 -52.27529 13123 ft 380 kts 206°
2026-04-26 22:17 5.35819 -52.28759 12618 ft 375 kts 206°
2026-04-26 22:18 5.33521 -52.29976 12118 ft 370 kts 206°
2026-04-26 22:18 5.31256 -52.31176 11622 ft 366 kts 206°
2026-04-26 22:18 5.29017 -52.32363 11135 ft 361 kts 206°
2026-04-26 22:18 5.26822 -52.33527 10866 ft 350 kts 206°
2026-04-26 22:19 5.24718 -52.34643 10753 ft 334 kts 206°
2026-04-26 22:19 5.22731 -52.35698 10647 ft 321 kts 205°
2026-04-26 22:19 5.20797 -52.36724 10502 ft 308 kts 205°
2026-04-26 22:19 5.18907 -52.37725 10362 ft 307 kts 205°
2026-04-26 22:20 5.17015 -52.38725 10065 ft 308 kts 205°
2026-04-26 22:20 5.15126 -52.39725 9682 ft 305 kts 205°
2026-04-26 22:20 5.13253 -52.40717 9329 ft 304 kts 205°
2026-04-26 22:20 5.11390 -52.41704 9003 ft 303 kts 205°
2026-04-26 22:21 5.09527 -52.42690 8698 ft 301 kts 205°
2026-04-26 22:21 5.07684 -52.43666 8373 ft 299 kts 205°
2026-04-26 22:21 5.05846 -52.44640 8042 ft 298 kts 205°
2026-04-26 22:21 5.04018 -52.45608 7726 ft 296 kts 205°
2026-04-26 22:22 5.02200 -52.46571 7460 ft 295 kts 205°
2026-04-26 22:22 5.00409 -52.47520 7174 ft 294 kts 206°
2026-04-26 22:22 4.98607 -52.48474 6857 ft 292 kts 205°
2026-04-26 22:22 4.96812 -52.49425 6541 ft 292 kts 205°
2026-04-26 22:23 4.95040 -52.50418 6191 ft 291 kts 208°
2026-04-26 22:23 4.93292 -52.51436 5859 ft 290 kts 208°
2026-04-26 22:23 4.91555 -52.52449 5547 ft 288 kts 208°
2026-04-26 22:23 4.89830 -52.53449 5215 ft 286 kts 207°
2026-04-26 22:24 4.88104 -52.54447 4926 ft 285 kts 207°
2026-04-26 22:24 4.86386 -52.55438 4614 ft 285 kts 207°
2026-04-26 22:24 4.84675 -52.56424 4344 ft 281 kts 207°
2026-04-26 22:24 4.83021 -52.57379 4200 ft 268 kts 207°
2026-04-26 22:25 4.81381 -52.58147 4084 ft 252 kts 191°
2026-04-26 22:25 4.79709 -52.58108 3910 ft 237 kts 159°
2026-04-26 22:25 4.78188 -52.57500 3662 ft 234 kts 152°
2026-04-26 22:25 4.76713 -52.56808 3414 ft 235 kts 151°
2026-04-26 22:26 4.75285 -52.56043 3171 ft 230 kts 141°
2026-04-26 22:26 4.74324 -52.54864 3025 ft 213 kts 107°
2026-04-26 22:26 4.74225 -52.53473 2969 ft 193 kts 83°
2026-04-26 22:26 4.74587 -52.52209 2894 ft 188 kts 64°
2026-04-26 22:27 4.75161 -52.51059 2807 ft 179 kts 64°
2026-04-26 22:27 4.75666 -52.49945 2674 ft 172 kts 66°
2026-04-26 22:27 4.76150 -52.48868 2423 ft 167 kts 65°
2026-04-26 22:27 4.76629 -52.47824 2189 ft 161 kts 65°
2026-04-26 22:28 4.77086 -52.46830 1990 ft 152 kts 65°
2026-04-26 22:28 4.77516 -52.45891 1792 ft 145 kts 65°
2026-04-26 22:28 4.77934 -52.44978 1624 ft 144 kts 64°
2026-04-26 22:28 4.78343 -52.44089 1420 ft 137 kts 66°
2026-04-26 22:29 4.78731 -52.43240 1250 ft 130 kts 63°
2026-04-26 22:29 4.79097 -52.42442 1083 ft 126 kts 62°
2026-04-26 22:29 4.79466 -52.41640 930 ft 127 kts 65°
2026-04-26 22:29 4.79822 -52.40849 738 ft 122 kts 66°
2026-04-26 22:30 4.80171 -52.40050 601 ft 129 kts 65°
2026-04-26 22:30 4.80578 -52.39225 471 ft 136 kts 65°
2026-04-26 22:30 4.80974 -52.38371 291 ft 133 kts 68°
2026-04-26 22:30 4.81350 -52.37531 114 ft 133 kts 66°
2026-04-26 22:31 4.81731 -52.36706 35 ft 118 kts 66°
2026-04-26 22:31 4.81967 -52.36190 35 ft 45 kts 65°
2026-04-26 22:31 4.82052 -52.36006 35 ft 17 kts 62°
2026-04-26 22:31 4.82116 -52.35981 35 ft 10 kts 346°
2026-04-26 22:32 4.82126 -52.35985 35 ft 0 kts 335°
2026-04-26 22:32 4.82144 -52.36002 35 ft 8 kts 315°
2026-04-26 22:32 4.82170 -52.36035 35 ft 0 kts 305°
2026-04-26 22:33 4.82184 -52.36109 35 ft 12 kts 255°
2026-04-26 22:33 4.82146 -52.36194 35 ft 15 kts 240°
2026-04-26 22:34 4.82098 -52.36283 35 ft 10 kts 244°
2026-04-26 22:34 4.82088 -52.36323 35 ft 5 kts 282°
2026-04-26 22:34 4.82119 -52.36350 35 ft 6 kts 329°
2026-04-26 22:34 4.82142 -52.36361 35 ft 2 kts 334°
2026-04-26 22:35 4.82149 -52.36365 35 ft 0 kts 334°
2026-04-26 22:35 4.82150 -52.36365 35 ft 0 kts 334°